Content
SEND FEEDBACK

Daily
Averages
Monthly
Summary
Switzerland

GENEVA, SWITZERLAND


Home > Europe > Switzerland
Elevation: 415 meters     Latitude: 46 15N     Longitude: 006 08E

WEATHER
 
SELECT A DAY
Number of Records: 315,702;   Date Range: 7/1/96 - 11/26/14
 
SHARE

PRINT THIS DATA

[ ← Previous Day ]
WEATHER ALMANAC - 1 APRIL, 2013
[ Next Day → ]
[ °F ]   °C
Weather ElementAverageHighLow
Temperature3.9 °C7.8 °C (3:00 pm)1.1 °C (1:00 am)
Dewpoint-1 °C3 °C (9:20 pm)-3.3 °C (1:00 am)
Humidity68.6 %93 % (9:20 pm)38 % (3:00 pm)
Barometer1003.4 hPa1007.1 hPa (1:00 am)1001 hPa (4:50 pm)
Wind Speed11.3 km/h20.4 km/h (3:00 pm)
Weather ElementAverage
Visibility7.6 km
Wind DirectionNE (42.5 °)

Weather ElementTotal
Precipitation---
Heating Degree Days13.9 (Base 18.3)
Averaged from 65 records on 1 April, 2013
WEATHER CONDITIONS BREAKOUT
WIND DIRECTION BREAKOUT
WEATHER BY HOUR - 1 APRIL, 2013
[ °F ]   °C
Local TimeTemperatureDewpointHumidityBarometerVisibilityWind DirectionWind SpeedGust SpeedPrecipitationEventsConditions
12:20 AM3 °C-3 °C65 %1005.1 hPa8 kmNorth (10°)11.1 km/h
12:50 AM2 °C-3 °C70 %1005.1 hPa8 kmVariable5.6 km/h
1:00 AM1.1 °C-3.3 °C64 %1007.1 hPaNorth (10°)5.6 km/h
1:20 AM2 °C-3 °C70 %1005.1 hPa8 kmNNE (20°)7.4 km/h
1:50 AM2 °C-2 °C75 %1005.1 hPa8 kmNE (40°)14.8 km/h
2:00 AM2.2 °C-2.8 °C59 %1006.4 hPa8 kmNE (40°)16.7 km/hHaze
2:20 AM2 °C-2 °C75 %1004.1 hPa6.9 kmNNE (30°)16.7 km/h
2:50 AM2 °C-2 °C75 %1004.1 hPa6 kmNE (40°)16.7 km/hScattered Clouds
3:00 AM2.2 °C-1.7 °C66 %1006.8 hPaNE (40°)18.5 km/h
4:00 AM2.2 °C-2.2 °C65 %1006.1 hPaNNE (20°)11.1 km/h
4:20 AM2 °C-2 °C75 %1004.1 hPa6 kmNorth (360°)5.6 km/hMostly Cloudy
4:50 AM2 °C-2 °C75 %1004.1 hPa6 kmNorth (10°)7.4 km/hMostly Cloudy
5:20 AM2 °C-2 °C75 %1004.1 hPa6 kmNorth (10°)5.6 km/hOvercast
5:50 AM2 °C-2 °C75 %1004.1 hPa6 kmNorth (10°)5.6 km/hMostly Cloudy
6:00 AM1.7 °C-2.2 °C66 %1005.8 hPaNorth7.4 km/h
6:20 AM2 °C-2 °C75 %1003 hPa6 kmVariable3.7 km/hOvercast
6:50 AM2 °C-2 °C75 %1003 hPa6 kmNNE (20°)7.4 km/hOvercast
7:00 AM1.7 °C-2.2 °C67 %1005.1 hPaNNE (20°)9.3 km/h
7:20 AM2 °C-2 °C75 %1003 hPa5 kmNNE (20°)9.3 km/hOvercast
7:50 AM2 °C-2 °C75 %1003 hPa6 kmNorth (10°)9.3 km/hOvercast
8:00 AM1.7 °C-1.7 °C71 %1004.7 hPa4.8 kmNorth (10°)9.3 km/hMist
8:20 AM2 °C-1 °C81 %1003 hPa6 kmNorth (10°)7.4 km/hOvercast
8:50 AM2 °C-2 °C75 %1003 hPa6 kmNNE (20°)9.3 km/hOvercast
9:00 AM2.2 °C-2.2 °C65 %1004.7 hPaNNE (20°)9.3 km/h
9:20 AM2 °C-2 °C75 %1003 hPa6.9 kmNNE (20°)9.3 km/hOvercast
9:50 AM3 °C-2 °C70 %1003 hPa8 kmNNE (20°)11.1 km/hOvercast
10:00 AM2.8 °C-2.8 °C57 %1004.7 hPaNNE (20°)14.8 km/h
10:20 AM3 °C-2 °C70 %1003 hPa8 kmNNE (30°)13 km/hOvercast
10:50 AM3 °C-2 °C70 %1003 hPa8 kmNNE (20°)13 km/hOvercast
11:20 AM4 °C-3 °C61 %1003 hPa9 kmNNE (20°)11.1 km/hMostly Cloudy
11:50 AM4 °C-2 °C65 %1003 hPa9 kmNE (50°)14.8 km/hScattered Clouds
12:00 PM4.4 °C-2.2 °C51 %1004.4 hPaNE (50°)18.5 km/h
12:20 PM5 °C-2 °C61 %1003 hPa10 kmNE (50°)13 km/hScattered Clouds
12:50 PM5 °C-2 °C61 %1003 hPa10 kmNE (40°)18.5 km/hPartly Cloudy
1:00 PM5 °C-2.8 °C44 %1004.1 hPaNE (40°)18.5 km/h
1:20 PM6 °C-1 °C61 %1002 hPa10 kmNE (40°)18.5 km/hPartly Cloudy
1:50 PM6 °C-2 °C57 %1002 hPa10 kmNE (50°)16.7 km/hPartly Cloudy
2:00 PM5.6 °C-2.2 °C46 %1003.7 hPa9.7 kmNE (50°)18.5 km/hHaze
2:20 PM6 °C-2 °C57 %1002 hPa10 kmNE (40°)14.8 km/hScattered Clouds
2:50 PM7 °C-2 °C53 %1002 hPa10 kmNE (50°)18.5 km/hScattered Clouds
3:00 PM7.8 °C-1.7 °C38 %1003 hPaNE (50°)20.4 km/h
3:20 PM7 °C-1 °C57 %1002 hPa10 kmNE (50°)18.5 km/hScattered Clouds
3:50 PM7 °C-1 °C57 %1002 hPa10 kmENE (60°)16.7 km/hMostly Cloudy
4:00 PM6.7 °C-1.1 °C46 %1002.7 hPaNE (40°)16.7 km/h
4:20 PM7 °C0 °C61 %1002 hPa10 kmNE (40°)14.8 km/hMostly Cloudy
4:50 PM7 °C0 °C61 %1001 hPa9 kmNE (40°)13 km/hMostly Cloudy
5:20 PM7 °C0 °C61 %1001 hPa9 kmNE (40°)16.7 km/hMostly Cloudy
5:50 PM6 °C-1 °C61 %1001 hPa9 kmNNE (30°)14.8 km/hMostly Cloudy
6:00 PM6.1 °C-1.1 °C49 %1002.4 hPaNE (40°)13 km/h
6:20 PM6 °C0 °C66 %1001 hPa9 kmNE (40°)9.3 km/hMostly Cloudy
6:50 PM6 °C0 °C66 %1001 hPa8 kmNE (40°)11.1 km/hMostly Cloudy
7:00 PM5.6 °C-0.6 °C55 %1002.7 hPaNNE (30°)14.8 km/h
7:20 PM6 °C0 °C66 %1002 hPa6.9 kmNE (40°)11.1 km/hRainLight Rain
7:50 PM5 °C2 °C81 %1002 hPa6.9 kmNNE (20°)9.3 km/hRainLight Rain
8:00 PM4.4 °C1.1 °C72 %1003.4 hPa6.4 kmNNE (20°)9.3 km/hRainLight Rain
8:20 PM4 °C2 °C87 %1002 hPa6 kmNE (50°)9.3 km/hRainLight Rain Showers
8:50 PM4 °C2 °C87 %1002 hPa6 kmNNE (30°)7.4 km/hRainLight Rain
9:00 PM4.4 °C2.2 °C79 %1003.7 hPaNorth (10°)7.4 km/h
9:20 PM4 °C3 °C93 %1002 hPa6 kmVariable1.9 km/hMostly Cloudy
9:50 PM4 °C3 °C93 %1002 hPa6.9 kmVariable1.9 km/hMostly Cloudy
10:00 PM4.4 °C2.8 °C85 %1003.7 hPaWest (280°)3.7 km/h
10:20 PM4 °C3 °C93 %1002 hPa6.9 kmVariable3.7 km/hMostly Cloudy
10:50 PM4 °C3 °C93 %1002 hPa6.9 kmSW (230°)5.6 km/hMostly Cloudy
11:20 PM4 °C3 °C93 %1002 hPa6.9 kmVariable3.7 km/hMostly Cloudy
11:50 PM4 °C3 °C93 %1002 hPa6.9 kmSW (220°)5.6 km/hMostly Cloudy
Hourly data recorded from LSGG, located 0 kilometers away from Geneva, Switzerland







STORIES FROM OUR PARTNERS